Regional Weather Roundup
Issued by NWS

Home | Current Version | Previous Version | Text Only | Print | Product List | Glossary On
Versions: 1 2 3 4 5 6 7 8 9 10 11 12 13 14 15 16 17 18 19 20 21 22 23 24 25 26 27 28 29 30 31 32 33 34 35 36 37 38 39 40 41 42 43 44 45 46 47 48 49 50
000
ASUS43 KMPX 232310
RWRMN
WEATHER ROUNDUP FOR MINNESOTA
NATIONAL WEATHER SERVICE TWIN CITIES/CHANHASSEN MN
600 PM CDT SAT SEP 23 2017


NOTE: "FAIR" INDICATES FEW OR NO CLOUDS BELOW 12,000 FEET WITH NO
SIGNIFICANT WEATHER AND/OR OBSTRUCTIONS TO VISIBILITY. N/A MEANS
CURRENT SKY AND/OR WEATHER CONDITIONS ARE NOT AVAILABLE.

MNZ060>063-068>070-240000-
   Twin Cities Metro

CITY           SKY/WX    TMP DP  RH WIND       PRES   REMARKS
TWIN CITIES    CLOUDY    86  71  60 SE6       29.91F HX  91
ST PAUL        CLOUDY    82  73  74 E3        29.91F
CRYSTAL        CLOUDY    81  70  69 NE3       29.90F
BLAINE         PTSUNNY   82  73  74 CALM      29.92F
LAKEVILLE      CLOUDY    82  70  65 CALM      29.92S
EDEN PRAIRIE   CLOUDY    84  71  65 SE8       29.90F
SOUTH ST PAUL  CLOUDY    85  68  56 CALM      29.91F
LAKE ELMO      FAIR      82  72  69 SE3       29.93F
$$
MNZ001>005-007-008-013>017-022>024-027-028-240000-
   Northwest Minnesota

CITY           SKY/WX    TMP DP  RH WIND       PRES   REMARKS
BEMIDJI        CLOUDY    55  52  89 N8        30.02F
HALLOCK          N/A     61  48  63 N12       30.08R
ROSEAU           N/A     57  54  88 N3        30.07R
WARROAD        CLOUDY    57  54  88 CALM      30.07R
THIEF RVR FALL CLOUDY    58  51  78 N9        30.05F
CROOKSTON      CLOUDY    61  52  72 NE6       30.06R
FOSSTON        CLOUDY    54  52  94 N7        30.06S
DETROIT LAKES  CLOUDY    55  52  88 N5        30.03R
MOORHEAD       CLOUDY    59  50  72 N10       30.03R
PARK RAPIDS    CLOUDY    58  54  86 VRB5      30.03R
MAHNOMEN       CLOUDY    56  51  84 N12       30.03F
$$
MNZ006-009>011-018-025>026-240000-
   North Central Minnesota

CITY           SKY/WX    TMP DP  RH WIND       PRES   REMARKS
BAUDETTE       CLOUDY    56  53  90 NW3       30.05R
FLAG ISLAND    CLOUDY    55  52  88 N8        30.05R
INTL FALLS     CLOUDY    57  54  89 NW5       30.02F
WASKISH        CLOUDY    55  54  94 N6        30.06R
BIG FORK       CLOUDY    61  55  82 N5        30.03S
LONGVILLE      CLOUDY    57  55  94 CALM      30.01R
GRAND RAPIDS   CLOUDY    61  58  90 N8        30.01F
CRANE LAKE     CLOUDY    61  57  88 NW3       30.03F
ORR            CLOUDY    61  54  77 NW5       30.01R
COOK           CLOUDY    63  57  82 N3        30.02
WALKER         CLOUDY    55  54  94 N6        30.02S
$$
MNZ012-019>021-037-240000-
   Northeast Minnesota

CITY           SKY/WX    TMP DP  RH WIND       PRES   REMARKS
DULUTH         CLOUDY    74  70  87 NW5       29.97R
ELY            MOCLDY    66  63  88 NW6       30.02R
HIBBING        CLOUDY    62  58  86 N6        30.00F
EVELETH        PTSUNNY   65  58  77 N5        30.02R
DULUTH HARBOR  CLOUDY    77  70  78 NW5       29.94R
GRAND MARAIS     N/A     75  68  78 MISG      29.92S
$$
MNZ029>031-032-039>041-046>048-054>057-064-240000-
   West Central Minnesota

CITY           SKY/WX    TMP DP  RH WIND       PRES   REMARKS
FERGUS FALLS   LGT RAIN  55  55 100 NE5       30.02R
WHEATON        CLOUDY    55  52  88 N7        29.98F
ALEXANDRIA     RAIN      58  57  97 N8        30.01R FOG
ELBOW LAKE     RAIN      56  56  98 NE3       30.01F
WADENA         CLOUDY    57  57 100 N5        30.01R
GLENWOOD       CLOUDY    61  61 100 N8        29.99S
APPLETON       RAIN      55  54  94 N8G16     29.95F
BENSON         LGT RAIN  57  55  94 E6        29.99R
ORTONVILLE     DRIZZLE   55  52  88 NE10      29.95F
MADISON        LGT RAIN  57  57 100 N9        29.97R
WILLMAR        CLOUDY    63  63 100 N10       29.96S
$$
MNZ033>034-036-042>043-049>051-058-059-240000-
   Central Minnesota

CITY           SKY/WX    TMP DP  RH WIND       PRES   REMARKS
ST CLOUD       CLOUDY    70  66  87 N3        29.95S
SAUK CENTRE    LGT RAIN  63  63  98 CALM      29.99R
PAYNESVILLE    TSTM      65  65  97 CALM      29.98R VSB 3/4
AITKIN         CLOUDY    66  64  94 NW5       29.95F
PINE RIVER     CLOUDY    55  54  94 N9        30.04R
BRAINERD       CLOUDY    64  62  93 N9        29.97R
STAPLES        LGT RAIN  57  57 100 N9        30.00R
LITTLE FALLS   DRIZZLE   64  61  88 CALM      29.96S
LITCHFIELD     CLOUDY    70  66  88 NW6       29.96R
BUFFALO        CLOUDY    74  67  77 N7        29.94S
MAPLE LAKE     CLOUDY    73  68  84 N8        29.95S
HUTCHINSON     MOSUNNY   73  68  84 N7        29.95S
$$
MNZ037-044-045-052-053-240000-
   East Central Minnesota

CITY           SKY/WX    TMP DP  RH WIND       PRES   REMARKS
PRINCETON      CLOUDY    75  70  83 N5        29.95F
MORA           CLOUDY    70  64  83 CALM      29.97F
RUSH CITY      CLOUDY    77  72  82 NW5       29.95R
MOOSE LAKE     CLOUDY    72  68  88 N6        29.96R
HINCKLEY       FAIR      77  72  83 NW5       29.95S
CLOQUET        CLOUDY    73  66  78 NW6       29.98R
MCGREGOR       CLOUDY    70  64  83 NE3       29.95F
$$
MNZ071>073-080-081-089-090-097-098-240000-
   Southwest Minnesota

CITY           SKY/WX    TMP DP  RH WIND       PRES   REMARKS
MONTEVIDEO     TSTM      57  57 100 E10       29.94F
GRANITE FALLS  RAIN      59  58  94 CALM      29.99F
CANBY          CLOUDY    55  54  96 N8        29.97S
MARSHALL       CLOUDY    59  58  96 NE10      29.95F
REDWOOD FALLS  PTSUNNY   68  63  84 NW13      29.95R
OLIVIA         CLOUDY    70  64  83 N7        29.93S
PIPESTONE      HVY RAIN  66  63  88 NE8       29.91F
WORTHINGTON    CLOUDY    67  64  90 N8        29.93R
JACKSON        MOSUNNY   82  63  51 S5        29.93R
TRACY          CLOUDY    65  60  85 N7        29.95S
SLAYTON        CLOUDY    62  53  72 N7        29.95S
$$
MNZ065>067-074>077-082>085-091>093-240000-
   South Central Minnesota

CITY           SKY/WX    TMP DP  RH WIND       PRES   REMARKS
MANKATO        MOSUNNY   86  68  54 S8        29.91S
NEW ULM        CLOUDY    73  66  78 N7        29.92R
ST JAMES       CLOUDY    79  66  65 CALM      29.92R
FAIRMONT       SUNNY     86  66  51 S13       29.91S
FARIBAULT      MOSUNNY   84  68  58 E5        29.93S
OWATONNA       CLOUDY    86  68  54 S7        29.94S
WASECA         CLOUDY    84  63  48 S8        29.94S
ALBERT LEA     MOSUNNY   90  64  43 S8        29.94S HX  91
$$
MNZ078>079-086>088-094>096-240000-
   Southeast Minnesota

CITY           SKY/WX    TMP DP  RH WIND       PRES   REMARKS
ROCHESTER      SUNNY     85  64  49 S13       29.97F
RED WING       MOSUNNY   88  66  48 SE3       29.91F HX  90
STANTON        CLOUDY    86  69  55 SE3       29.91F HX  90
DODGE CENTER   MOSUNNY   88  61  40 S14       29.96F
WINONA         SUNNY     90  63  40 S6        29.95F HX  90
AUSTIN         SUNNY     86  63  45 S8        29.95F
PRESTON        SUNNY     84  62  46 S9        29.99S
$$
ABBREVIATIONS USED IN REMARKS
   TC - TEMPERATURES IN CELSIUS
  WCI - WIND CHILL INDEX
   HX - HEAT INDEX
  VSB - VISIBILITY
$$



USA.gov is the U.S. government's official web portal to all federal, state and local government web resources and services.